Terminal Aerodrome Forecast
Issued by NWS

Home | Current Version | Previous Version | Text Only | Print | Product List | Glossary On
Versions: 1 2 3 4 5 6 7 8 9 10 11 12 13 14 15 16 17 18 19 20 21 22 23 24 25 26 27 28 29 30 31 32
000
FTUS45 KABQ 240526
TAFLVS
TAF
KLVS 240526Z 2406/2506 19012KT P6SM BKN200
     FM241500 22015G25KT P6SM BKN200
     FM241900 26028G38KT P6SM FEW120 SCT200
     FM250300 23017KT P6SM BKN200=

USA.gov is the U.S. government's official web portal to all federal, state and local government web resources and services.